Tracking 20242 objects as of 24-Jan-2020
HD Live streaming from Space Station
objects crossing your sky now

SPACEBEE-6

Track SPACEBEE-6 now!
10-day predictions


NORAD ID: 43818
Int'l Code: 2018-099BN
Perigee: 578.8 km
Apogee: 595.8 km
Inclination: 97.7 °
Period: 96.3 minutes
Semi major axis: 6958 km
RCS: Unknown
Launch date: December 3, 2018
Source: United States (US)
Launch site: AIR FORCE WESTERN TEST RANGE (AFWTR)
aabbcc
Your satellite tracking list
Your tracking list is empty




NASA's NSSDC Master Catalog

Two Line Element Set (TLE):
1 43818U 18099BN  20023.32770693 +.00000312 +00000-0 +33212-4 0  9996
2 43818 097.7252 097.6433 0012193 310.0136 050.0014 14.95711797061806
Source of the keplerian elements: AFSPC